YOLDYPAD

Guest
Details From YOLD - Olympic Dam
To YPAD - Adelaide Intl
Flight Number -
Tags Decoded
Created
Modified
Stats Distance 281 nm / 520 km
Max Altitude 0 ft / 0 m
Waypoints 2
Social Downloads 2
Likes 0
Share VATSIM

Download

Looking for another format? Having issues loading an existing format? Contact us
Advertisement - Login to hide

Notes

Decoded

Route

YOLD YPAD

ID Type Via Altitude Latitude Longitude Leg Dist Tot Dist Heading (true) Name
O YOLD APT - 0 ft / 0 m -30.48737˚ 136.86829˚ - 0 nm - -
O YPAD APT - 0 ft / 0 m -34.94168˚ 138.54233˚ 280 nm 280 nm 163° / 162° -

Altitude Profile

Advertisement - Login to hide

Weather


0- 5 10 15 20 25 30 35+ Temperature / ° C

Clouds and Precipitation
Forecast for 2018-05-22 18:00 UTC. Updated 2 hours ago

Ground ~20,000 ft ~40,000 ft Winds

YOLD

Details ICAO YOLD (OLP)
Name Olympic Dam
Region Australia
Timezone Australia/Adelaide (UTC+9.5)
Stats Elevation 343 ft / 105 m (AMSL)
Location -30.484945° 136.876099°
Runways 1
Magnetic Variation 6.432° E

METAR

YOLD 221900Z AUTO 16004KT 9999 // NCD 06/04 Q1028

Decode

TAF

Not found

Departure Runways

ID Width Length Bearing (true) Bearing (mag) Surface Threshold Offset Overrun Length
06 66 ft / 20 m 5,211 ft / 1,588 m 70.40° 63.97° Asphalt 0 ft / 0 m 0 ft / 0 m
24 66 ft / 20 m 5,211 ft / 1,588 m 250.40° 243.97° Asphalt 0 ft / 0 m 0 ft / 0 m

YPAD

Details ICAO YPAD (ADL)
Name Adelaide Intl
Region Australia
Timezone Australia/Adelaide (UTC+9.5)
Stats Elevation 20 ft / 6 m (AMSL)
Location -34.947439° 138.529850°
Runways 2
Magnetic Variation 7.921° E

METAR

YPAD 221930Z 00000KT 9999 BKN044 14/11 Q1029 NOSIG

Decode

TAF

TAF YPAD 221719Z 2218/2324 15005KT 9999 SCT020 BKN030 FM230000 24008KT 9999 -SHRA BKN030 FM230900 13005KT 9999 FEW020 BKN030

Decode

Destination Runways

ID Width Length Bearing (true) Bearing (mag) Surface Threshold Offset Overrun Length
05 151 ft / 46 m 10,173 ft / 3,101 m 50.14° 42.22° Asphalt 518 ft / 158 m 0 ft / 0 m
12 151 ft / 46 m 5,414 ft / 1,650 m 123.61° 115.69° Asphalt 0 ft / 0 m 0 ft / 0 m
23 151 ft / 46 m 10,173 ft / 3,101 m 230.13° 222.21° Asphalt 0 ft / 0 m 203 ft / 62 m
30 151 ft / 46 m 5,414 ft / 1,650 m 303.60° 295.68° Asphalt 0 ft / 0 m 0 ft / 0 m

Approach Navaids

Runway Type Ident Frequency Range Bearing (true) Bearing (mag) Slope Elevation
23 Localiser IAD 109.70 MHz 18 nm / 33 km 230.13° 222.20° - 20 ft / 6 m (AMSL)
23 Glidescope IAD 109.70 MHz 10 nm / 19 km 230.13° 222.21° 3.00° 20 ft / 6 m (AMSL)